SCP
0 0 0 0 0 0 0 0 0 0 0 0 0 0 0 0 0 0 0 0 0 0
-0 -0 0 0 0 0 0 0 0 0 0 0 0 0 0 0 0 0 0 0 0 0
0 0 0 0 0 0 0 0 0 0 0 0 0 0 0 0 0 0 0 0 0 0
0 0 0 0 0 0 0 0 0 0 0 0 0 0 0 0 0 0 0 0 0 0
0 0 0 0 0 0 0 0 0 0 0 0 0 0 0 0 0 0 0 0 0 0
0 0 0 0 0 0 0 0 0 0 0 0 0 0 0 0 0 0 0 0 0 0
0 0 0 0 0 0 0 0 0 0 0 0 0 0 0 0 0 0 0 0 0 0
0 0 0 0 0 0 0 0 0 0 0 0 0 0 0 0 0 0 0 0 0 0
0 0 0 0 0 0 0 0 0 0 0 0 0 0 0 0 0 0 0 0 0 0
0 0 0 0 0 0 0 0 0 0 0 0 0 0 0 0 0 0 0 0 0 0
0 0 0 0 0 0 0 0 0 0 0 0 0 0 0 0 0 0 0 0 0 0
0 0 0 0 0 0 0 0 0 0 0 0 0 0 0 0 0 0 0 0 0 0
0 0 0 0 0 0 0 0 0 0 0 0 0 0 0 0 0 0 0 0 0 0
0 0 0 0 0 0 0 0 0 0 0 0 0 0 0 0 0 0 0 0 0 0
Wind_Speed_500mb
32 30 29 24 24 25 27 26 25 24 25 28 27 28 27 24 22 19 17 17 21 23
34 32 29 25 24 23 24 23 23 25 27 28 26 23 19 15 14 15 15 15 16 21
35 32 30 28 24 21 20 21 22 23 24 24 18 12 8 8 9 11 16 20 23 22
28 30 29 24 21 18 18 19 21 22 18 13 8 5 5 5 6 10 14 17 19 20
29 31 27 25 21 19 16 18 18 12 7 2 2 4 5 4 3 7 10 13 15 16
29 29 28 24 21 16 14 13 8 4 4 7 9 10 11 12 12 12 12 11 15 18
35 28 25 22 18 13 10 9 9 9 11 14 14 14 17 19 18 16 15 15 16 20
32 32 27 20 14 9 9 11 12 12 15 16 17 16 17 16 18 19 19 18 18 21
36 35 26 18 11 11 13 17 17 17 18 18 19 16 13 11 11 13 16 16 17 19
39 33 25 18 15 18 21 21 21 21 21 19 17 13 9 8 5 6 10 13 12 12
41 33 26 20 21 25 27 26 24 25 24 21 19 15 9 9 11 10 5 6 8 5
46 34 27 24 27 30 29 31 31 28 28 27 21 17 15 11 12 11 7 2 7 6
44 32 26 26 30 32 30 33 35 33 27 22 18 12 10 12 11 5 4 4 8 8
41 31 27 30 34 35 38 38 37 33 28 22 16 10 6 1 2 3 3 4 8 9
Wind_Direction_500mb
238 235 236 249 250 250 265 274 286 293 300 303 309 313 312 304 304 306 305 291 286 286
236 240 248 243 238 251 263 267 279 291 301 308 309 310 307 314 321 324 334 332 325 317
221 230 238 235 238 237 246 262 280 294 299 303 310 318 331 337 336 336 333 331 329 325
225 228 229 227 226 238 257 274 284 287 292 302 314 345 8 359 340 327 326 330 337 341
222 223 219 228 230 235 248 265 273 277 271 250 148 122 93 69 12 343 342 352 360 355
209 205 209 214 216 232 249 254 241 220 169 148 131 107 93 83 79 69 55 38 33 34
199 198 196 208 221 229 224 199 178 162 151 139 129 112 97 94 96 85 63 52 51 46
200 198 198 207 219 221 191 176 165 155 148 137 127 123 118 101 85 73 63 60 55 52
200 197 197 206 215 198 180 164 158 158 149 135 131 133 130 111 89 79 68 67 63 55
204 198 200 207 206 187 174 162 155 155 149 137 137 142 160 160 151 120 80 75 73 62
203 202 206 210 197 187 176 165 157 155 148 140 126 119 131 180 194 194 166 73 42 40
206 206 215 206 193 186 180 170 158 153 149 141 129 107 89 104 156 178 199 222 356 356
207 214 218 208 193 185 176 173 169 165 166 160 149 128 87 75 83 115 164 291 318 322
210 212 208 201 190 183 175 175 179 183 192 194 187 187 189 187 9 35 47 359 331 287
Wind_Speed_850mb
32 30 29 24 24 25 27 26 25 24 25 28 27 28 27 24 22 19 17 17 21 23
34 32 29 25 24 23 24 23 23 25 27 28 26 23 19 15 14 15 15 15 16 21
35 32 30 28 24 21 20 21 22 23 24 24 18 12 8 8 9 11 16 20 23 22
28 30 29 24 21 18 18 19 21 22 18 13 8 5 5 5 6 10 14 17 19 20
29 31 27 25 21 19 16 18 18 12 7 2 2 4 5 4 3 7 10 13 15 16
29 29 28 24 21 16 14 13 8 4 4 7 9 10 11 12 12 12 12 11 15 18
35 28 25 22 18 13 10 9 9 9 11 14 14 14 17 19 18 16 15 15 16 20
32 32 27 20 14 9 9 11 12 12 15 16 17 16 17 16 18 19 19 18 18 21
36 35 26 18 11 11 13 17 17 17 18 18 19 16 13 11 11 13 16 16 17 19
39 33 25 18 15 18 21 21 21 21 21 19 17 13 9 8 5 6 10 13 12 12
41 33 26 20 21 25 27 26 24 25 24 21 19 15 9 9 11 10 5 6 8 5
46 34 27 24 27 30 29 31 31 28 28 27 21 17 15 11 12 11 7 2 7 6
44 32 26 26 30 32 30 33 35 33 27 22 18 12 10 12 11 5 4 4 8 8
41 31 27 30 34 35 38 38 37 33 28 22 16 10 6 1 2 3 3 4 8 9
Wind_Direction_850mb
238 235 236 249 250 250 265 274 286 293 300 303 309 313 312 304 304 306 305 291 286 286
236 240 248 243 238 251 263 267 279 291 301 308 309 310 307 314 321 324 334 332 325 317
221 230 238 235 238 237 246 262 280 294 299 303 310 318 331 337 336 336 333 331 329 325
225 228 229 227 226 238 257 274 284 287 292 302 314 345 8 359 340 327 326 330 337 341
222 223 219 228 230 235 248 265 273 277 271 250 148 122 93 69 12 343 342 352 360 355
209 205 209 214 216 232 249 254 241 220 169 148 131 107 93 83 79 69 55 38 33 34
199 198 196 208 221 229 224 199 178 162 151 139 129 112 97 94 96 85 63 52 51 46
200 198 198 207 219 221 191 176 165 155 148 137 127 123 118 101 85 73 63 60 55 52
200 197 197 206 215 198 180 164 158 158 149 135 131 133 130 111 89 79 68 67 63 55
204 198 200 207 206 187 174 162 155 155 149 137 137 142 160 160 151 120 80 75 73 62
203 202 206 210 197 187 176 165 157 155 148 140 126 119 131 180 194 194 166 73 42 40
206 206 215 206 193 186 180 170 158 153 149 141 129 107 89 104 156 178 199 222 356 356
207 214 218 208 193 185 176 173 169 165 166 160 149 128 87 75 83 115 164 291 318 322
210 212 208 201 190 183 175 175 179 183 192 194 187 187 189 187 9 35 47 359 331 287